CST,Max TemperatureF,Mean TemperatureF,Min TemperatureF,Max Dew PointF,MeanDew PointF,Min DewpointF,Max Humidity, Mean Humidity, Min Humidity, Max Sea Level PressureIn, Mean Sea Level PressureIn, Min Sea Level PressureIn, Max VisibilityMiles, Mean VisibilityMiles, Min VisibilityMiles, Max Wind SpeedMPH, Mean Wind SpeedMPH, Max Gust SpeedMPH,PrecipitationIn, CloudCover, Events, WindDirDegrees
2012-12-1,82,68,55,63,56,52,94,71,37,30.10,30.04,29.98,10,8,2,18,8,26,0.00,1,,190
2012-12-2,80,70,59,61,58,52,94,70,37,30.15,30.07,30.02,10,10,7,17,7,25,0.00,2,,189
2012-12-3,78,69,60,59,58,55,88,72,44,30.06,30.00,29.93,10,10,10,21,12,28,0.00,2,,189
2012-12-4,69,60,50,59,36,21,88,47,23,30.30,30.19,30.05,10,10,10,20,8,28,0.00,0,,333
2012-12-5,68,54,41,34,26,21,57,35,17,30.31,30.22,30.10,10,10,10,7,3,,0.00,0,,27
2012-12-6,73,58,42,50,44,37,94,58,27,29.98,29.88,29.82,10,9,0,16,8,22,0.00,1,,177
2012-12-7,71,58,44,54,43,34,82,60,43,29.94,29.87,29.82,10,10,10,13,4,17,0.00,0,,253
2012-12-8,71,60,50,57,49,41,88,68,53,29.96,29.88,29.81,10,10,7,13,5,17,0.00,3,,127
2012-12-9,62,48,35,59,44,12,94,73,36,30.11,29.91,29.81,10,7,0,21,6,29,0.00,1,,328
2012-12-10,42,34,26,23,17,10,80,51,33,30.21,30.15,30.09,10,10,10,22,13,37,0.00,2,,335
2012-12-11,50,34,19,21,13,9,80,49,19,30.24,30.16,30.10,10,10,10,9,1,,0.00,0,,131
2012-12-12,60,40,21,23,16,10,68,38,19,30.30,30.23,30.17,10,10,10,16,4,21,0.00,0,,169
2012-12-13,64,48,33,39,31,21,65,50,34,30.28,30.21,30.15,10,10,10,15,9,22,0.00,1,,174
2012-12-14,62,55,48,61,47,32,94,73,44,30.17,30.01,29.85,10,10,4,16,9,24,0.10,6,,169
2012-12-15,73,62,50,52,34,27,72,38,19,29.99,29.92,29.86,10,10,10,13,6,20,0.00,1,,248
2012-12-16,71,58,46,39,33,28,66,41,20,29.89,29.83,29.75,10,10,10,21,5,28,0.00,0,,279
2012-12-17,64,52,39,32,25,18,57,37,16,29.98,29.90,29.85,10,10,10,14,8,21,0.00,0,,286
2012-12-18,77,57,37,34,25,21,61,33,12,29.91,29.84,29.79,10,10,10,18,3,24,0.00,0,,214
2012-12-19,80,66,51,59,49,14,88,57,15,29.95,29.72,29.60,10,9,2,26,10,38,0.00,0,,198
2012-12-20,50,40,30,23,7,-6,52,29,10,30.46,30.33,29.99,10,10,7,26,17,38,0.00,0,,321
2012-12-21,64,44,24,12,6,1,50,24,8,30.49,30.40,30.32,10,10,10,12,2,17,0.00,0,,201
2012-12-22,64,50,35,46,28,5,67,40,23,30.32,30.19,30.06,10,10,10,23,8,30,0.00,0,,195
2012-12-23,62,54,42,46,37,23,93,56,30,30.06,29.95,29.88,10,10,10,15,6,23,0.00,0,,228
2012-12-24,57,44,32,27,23,18,75,47,21,30.06,29.93,29.80,10,10,10,10,4,,0.00,0,,35
2012-12-25,44,35,26,39,28,18,100,76,49,30.19,29.89,29.63,10,8,1,29,12,39,0.77,7,,342
2012-12-26,33,27,21,23,19,14,86,73,60,30.31,30.20,30.10,10,10,7,24,12,31,0.00,2,,350
2012-12-27,50,38,26,39,30,23,87,77,46,30.09,29.95,29.86,10,8,0,13,6,17,0.00,2,,155
2012-12-28,42,35,28,41,33,23,100,89,69,30.24,30.03,29.87,10,5,0,18,4,23,0.00,6,,328
2012-12-29,50,36,23,23,21,18,93,59,28,30.45,30.38,30.24,10,10,10,13,3,17,0.00,0,,340
2012-12-30,44,37,30,28,23,18,80,54,34,30.43,30.29,30.19,10,10,10,15,7,18,0.00,3,,153
2012-12-31,53,46,39,50,41,28,100,87,61,30.19,30.04,29.97,10,5,0,15,7,22,0.00,6,,161